Weather History for Greenville, AL

Change the Weather History Date:

Monday, March 25, 2013

  Actual Average Record
Temperature  
Mean Temperature 45 °F -  
Max Temperature 54 °F 71 °F 89 °F (1954)
Min Temperature 36 °F 45 °F 30 °F (1968)
Degree Days  
Heating Degree Days 20    
Moisture  
Dew Point 22 °F    
Average Humidity 43    
Maximum Humidity 60    
Minimum Humidity 22    
Precipitation  
Precipitation 0.00 in - - ()
Sea Level Pressure  
Sea Level Pressure 30.02 in    
Wind  
Wind Speed 11 mph (WNW)    
Max Wind Speed 24 mph    
Max Gust Speed 32 mph    
Visibility 10 miles    
Events      
Averages and records for this station are not official NWS values.
T = Trace of Precipitation, MM = Missing Value Source: NWS Daily Summary

Daily Weather History Graph

Daily Weather History Graph

Search for Another Location

Airport:

Trip Planner

Search our weather history database for the weather conditions in past years. The results will help you decide how hot, cold, wet, or windy it might be!

Date:

Astronomy

Mar. 25, 2013 Rise Set
Actual Time 6:43 AM CDT 7:01 PM CDT
Civil Twilight 6:19 AM CDT 7:25 PM CDT
Nautical Twilight 5:50 AM CDT 7:54 PM CDT
Astronomical Twilight 5:21 AM CDT 8:23 PM CDT
Moon 5:35 PM CDT (3/25) 5:21 AM CDT (3/25)
Length of Visible Light 13h 06m
Length of Day
12h 18m
Waxing Gibbous, 96% of the Moon is Illuminated
Mar 25
Waxing Gibbous
Mar 27
Full
Apr 2
Last Quarter
Apr 10
New
Apr 18
First Quarter

Hourly Weather History & Observations

Time (CDT) Temp. Windchill Dew Point Humidity Pressure Visibility Wind Dir Wind Speed Gust Speed Precip Events Conditions
12:56 AM 44.1 °F 39.5 °F 30.0 °F 58% 29.88 in 10.0 mi NW 8.1 mph 16.1 mph N/A   Overcast
1:56 AM 43.0 °F 36.8 °F 27.0 °F 53% 29.91 in 10.0 mi WNW 11.5 mph 16.1 mph N/A   Overcast
2:56 AM 43.0 °F 36.4 °F 27.0 °F 53% 29.91 in 10.0 mi West 12.7 mph 23.0 mph N/A   Overcast
3:56 AM 41.0 °F 32.5 °F 27.0 °F 57% 29.92 in 10.0 mi NW 17.3 mph 25.3 mph N/A   Partly Cloudy
4:56 AM 39.0 °F 32.8 °F 24.1 °F 55% 29.94 in 10.0 mi WNW 9.2 mph 20.7 mph N/A   Clear
5:56 AM 37.0 °F 32.4 °F 24.1 °F 59% 29.95 in 10.0 mi WNW 5.8 mph - N/A   Clear
6:56 AM 36.0 °F 30.3 °F 23.0 °F 59% 29.97 in 10.0 mi Variable 6.9 mph - N/A   Clear
7:56 AM 37.9 °F 32.1 °F 25.0 °F 60% 30.01 in 10.0 mi West 8.1 mph - N/A   Clear
8:56 AM 39.0 °F 33.4 °F 25.0 °F 57% 30.04 in 10.0 mi WNW 8.1 mph 20.7 mph N/A   Scattered Clouds
9:56 AM 42.1 °F 36.6 °F 25.0 °F 51% 30.06 in 10.0 mi WNW 9.2 mph 20.7 mph N/A   Clear
10:56 AM 46.0 °F 39.3 °F 24.1 °F 42% 30.05 in 10.0 mi West 16.1 mph 21.9 mph N/A   Clear
11:56 AM 48.0 °F - 25.0 °F 41% 30.04 in 10.0 mi West 15.0 mph 21.9 mph N/A   Clear
12:56 PM 50.0 °F - 21.0 °F 32% 30.03 in 10.0 mi WNW 15.0 mph 23.0 mph N/A   Clear
1:56 PM 52.0 °F - 17.1 °F 25% 30.01 in 10.0 mi West 24.2 mph 32.2 mph N/A   Clear
2:56 PM 53.1 °F - 18.0 °F 25% 30.01 in 10.0 mi WNW 16.1 mph 29.9 mph N/A   Clear
3:56 PM 54.0 °F - 18.0 °F 24% 30.00 in 10.0 mi WNW 16.1 mph 27.6 mph N/A   Clear
4:56 PM 53.1 °F - 17.1 °F 24% 30.00 in 10.0 mi WNW 12.7 mph 31.1 mph N/A   Clear
5:56 PM 52.0 °F - 14.0 °F 22% 30.02 in 10.0 mi WNW 12.7 mph 27.6 mph N/A   Clear
6:56 PM 48.9 °F - 16.0 °F 27% 30.06 in 10.0 mi NW 11.5 mph 18.4 mph N/A   Clear
7:56 PM 46.9 °F - 18.0 °F 32% 30.10 in 10.0 mi WNW 11.5 mph 17.3 mph N/A   Clear
8:56 PM 44.1 °F 39.0 °F 19.9 °F 38% 30.14 in 10.0 mi NW 9.2 mph - N/A   Clear
9:56 PM 42.1 °F 37.1 °F 19.9 °F 41% 30.17 in 10.0 mi NW 8.1 mph - N/A   Clear
10:56 PM 39.9 °F 33.4 °F 21.0 °F 47% 30.18 in 10.0 mi NNW 10.4 mph - N/A   Clear
11:56 PM 37.9 °F 33.5 °F 21.0 °F 51% 30.19 in 10.0 mi NW 5.8 mph - N/A   Clear